TimeMDT,TemperatureF,Dew PointF,Humidity,Sea Level PressureIn,VisibilityMPH,Wind Direction,Wind SpeedMPH,Gust SpeedMPH,PrecipitationIn,Events,Conditions,WindDirDegrees,DateUTC
12:14 AM,55.4,53.6,94,30.11,10.0,East,5.8,-,0.00,Rain,Light Rain,80,2013-07-28 06:14:00
12:25 AM,55.4,53.6,94,30.11,10.0,ESE,4.6,-,0.01,Rain,Light Rain,110,2013-07-28 06:25:00
12:53 AM,55.0,53.1,93,30.00,10.0,ESE,10.4,-,0.01,Rain,Light Rain,120,2013-07-28 06:53:00
1:53 AM,55.9,54.0,93,30.01,10.0,Calm,Calm,-,0.01,Rain,Light Rain,0,2013-07-28 07:53:00
2:53 AM,55.0,54.0,96,29.96,8.0,ESE,10.4,-,0.00,Rain,Light Rain,120,2013-07-28 08:53:00
3:53 AM,55.0,54.0,96,29.93,8.0,ESE,12.7,-,0.02,Rain,Light Rain,120,2013-07-28 09:53:00
4:53 AM,55.0,54.0,96,29.97,5.0,NNE,4.6,-,0.01,,Overcast,30,2013-07-28 10:53:00
5:17 AM,53.6,53.6,100,30.06,2.5,NE,4.6,-,0.00,,Overcast,40,2013-07-28 11:17:00
5:44 AM,55.4,53.6,94,30.06,1.5,NE,5.8,-,0.00,,Overcast,40,2013-07-28 11:44:00
5:53 AM,54.0,54.0,100,29.98,1.2,NNE,6.9,-,0.00,,Overcast,30,2013-07-28 11:53:00
6:12 AM,53.6,53.6,100,30.06,0.5,NE,8.1,-,N/A,Fog,Fog,40,2013-07-28 12:12:00
6:30 AM,53.6,53.6,100,30.06,0.2,ENE,8.1,-,N/A,Fog,Fog,60,2013-07-28 12:30:00
6:53 AM,54.0,53.1,97,29.98,0.5,ENE,9.2,-,N/A,Fog,Fog,60,2013-07-28 12:53:00
7:53 AM,54.0,53.1,97,29.99,0.8,ENE,8.1,-,N/A,,Mist,70,2013-07-28 13:53:00
8:53 AM,55.0,54.0,96,30.00,0.5,ENE,9.2,-,N/A,Fog,Fog,70,2013-07-28 14:53:00
9:48 AM,55.4,55.4,100,30.05,1.5,ESE,5.8,-,0.01,,Overcast,110,2013-07-28 15:48:00
9:53 AM,55.9,55.9,100,29.99,1.5,East,8.1,-,0.01,,Overcast,100,2013-07-28 15:53:00
10:53 AM,57.0,55.9,96,29.98,1.2,ESE,8.1,-,N/A,,Overcast,110,2013-07-28 16:53:00
11:08 AM,57.2,57.2,100,30.04,0.5,ESE,8.1,-,N/A,Fog,Fog,110,2013-07-28 17:08:00
11:53 AM,57.9,57.0,97,29.98,0.5,East,6.9,-,N/A,Fog,Fog,100,2013-07-28 17:53:00
12:04 PM,57.2,57.2,100,30.04,1.2,ESE,6.9,-,N/A,,Overcast,110,2013-07-28 18:04:00
12:51 PM,57.2,57.2,100,30.04,2.5,East,8.1,-,0.00,Rain,Light Rain,90,2013-07-28 18:51:00
12:53 PM,57.9,57.0,97,29.99,2.5,East,9.2,-,0.00,Rain,Light Rain,100,2013-07-28 18:53:00
1:12 PM,57.2,57.2,100,30.05,1.5,East,8.1,-,0.00,Rain,Light Rain,80,2013-07-28 19:12:00
1:35 PM,59.0,57.2,94,30.04,3.0,East,8.1,-,0.02,Rain,Light Rain,80,2013-07-28 19:35:00
1:53 PM,59.0,57.9,96,29.97,8.0,East,10.4,-,0.02,,Overcast,80,2013-07-28 19:53:00
2:53 PM,60.1,57.9,93,29.97,3.0,East,9.2,-,N/A,,Overcast,100,2013-07-28 20:53:00
3:03 PM,60.8,57.2,88,30.03,2.0,East,9.2,-,N/A,,Overcast,90,2013-07-28 21:03:00
3:11 PM,60.8,57.2,88,30.02,1.5,ESE,11.5,-,N/A,,Overcast,120,2013-07-28 21:11:00
3:36 PM,60.8,59.0,94,30.02,3.0,East,11.5,-,N/A,,Overcast,80,2013-07-28 21:36:00
3:53 PM,60.1,59.0,96,29.95,4.0,East,11.5,-,N/A,,Overcast,100,2013-07-28 21:53:00
4:32 PM,60.8,59.0,94,30.02,1.8,East,10.4,-,N/A,,Overcast,80,2013-07-28 22:32:00
4:53 PM,61.0,59.0,93,29.95,1.5,East,9.2,-,N/A,,Overcast,90,2013-07-28 22:53:00
5:30 PM,60.8,59.0,94,30.01,2.0,ESE,10.4,-,N/A,,Overcast,110,2013-07-28 23:30:00
5:42 PM,60.8,59.0,94,30.01,4.0,East,10.4,-,N/A,,Overcast,100,2013-07-28 23:42:00
5:53 PM,61.0,59.0,93,29.94,4.0,ESE,12.7,-,N/A,,Overcast,110,2013-07-28 23:53:00
5:58 PM,60.8,60.8,100,30.01,1.8,ESE,10.4,-,N/A,,Overcast,110,2013-07-28 23:58:00
6:08 PM,60.8,60.8,100,30.01,0.2,ESE,11.5,-,N/A,Fog,Fog,110,2013-07-29 00:08:00
6:53 PM,61.0,60.1,97,29.93,0.2,ESE,13.8,-,N/A,Fog,Fog,120,2013-07-29 00:53:00
7:53 PM,61.0,61.0,100,29.95,0.5,ESE,9.2,-,N/A,Fog,Fog,110,2013-07-29 01:53:00
8:48 PM,60.8,60.8,100,30.03,1.2,ESE,10.4,-,0.01,Rain,Light Rain,120,2013-07-29 02:48:00
8:53 PM,61.0,61.0,100,29.96,1.5,SE,12.7,-,0.02,Rain,Light Rain,130,2013-07-29 02:53:00
9:26 PM,62.6,60.8,94,30.04,0.8,ESE,10.4,-,0.00,,Mist,120,2013-07-29 03:26:00
9:53 PM,62.1,61.0,96,29.97,0.8,ESE,8.1,-,0.00,,Mist,120,2013-07-29 03:53:00
10:17 PM,62.6,60.8,94,30.03,1.0,SE,8.1,-,N/A,,Mist,140,2013-07-29 04:17:00
10:53 PM,62.1,61.0,96,29.95,2.5,ESE,10.4,-,0.01,,Overcast,120,2013-07-29 04:53:00
11:33 PM,62.6,60.8,94,30.02,1.8,SE,10.4,-,N/A,,Overcast,130,2013-07-29 05:33:00
11:46 PM,62.6,60.8,94,30.02,2.0,SE,8.1,-,N/A,,Overcast,130,2013-07-29 05:46:00
11:53 PM,62.1,61.0,96,29.94,1.8,ESE,9.2,-,N/A,,Overcast,120,2013-07-29 05:53:00